Home   Weather   Beulah   Past weeks
Flag for USA

Past Weather in Beulah, North Dakota, USA — Yesterday and Last 2 Weeks

Now
10 °F

Ice fog.


Feels Like: 0 °F
Forecast: 38 / 16 °F
Wind: 7 mph from South

Location: Mercer County Regional Airport

Current Time: Dec 6, 2019 at 12:41:57 am

Latest Report: Dec 5, 2019 at 11:55 pm


Visibility: 5 mi

Pressure: 30.30 "Hg (28.22 "Hg at 544m altitude)

Humidity: 100%

Dew Point: 10 °F

Location of BeulahLocation

Past Weather in Beulah — Graph

°F

Beulah Temperature Yesterday

Maximum temperature yesterday: 32 °F (at 1:35 am)
Minimum temperature yesterday: 12 °F (at 10:35 pm)
Average temperature yesterday: 28 °F

High & Low Weather Summary for the Past Weeks

 TemperatureHumidityPressure
High57 °F (Nov 24, 2:35 pm)100% (Nov 21, 4:15 am)30.41 "Hg (Nov 21, 4:15 am)
Low0 °F (Dec 1, 11:35 pm)36% (Nov 24, 2:35 pm)29.40 "Hg (Nov 24, 2:35 pm)
Average29 °F87%29.92 "Hg
* Reported Nov 20 11:15 pm — Dec 5 11:15 pm, Beulah. Weather by CustomWeather, © 2019

Note: Actual official high and low records may vary slightly from our data, if they occured in-between our weather recording intervals... More about our weather records

Beulah Weather History for the Previous 24 Hours

Scroll right to see more
 ConditionsComfort  
Time TempWeatherWind HumidityBarometerVisibility
11:15 pm
Thu, Dec 5
12 °FPassing clouds.8 mph100%30.30 "Hg9 mi
10:55 pm12 °FIce fog.6 mph100%30.30 "Hg6 mi
10:35 pm12 °FOvercast.3 mph100%30.30 "Hg9 mi
10:15 pm19 °FOvercast.No wind93%30.29 "Hg10 mi
9:55 pm21 °FOvercast.No wind93%30.29 "Hg10 mi
9:35 pm23 °FOvercast.6 mph93%30.29 "Hg10 mi
9:15 pm25 °FOvercast.5 mph86%30.28 "Hg10 mi
8:55 pm25 °FOvercast.5 mph86%30.28 "Hg10 mi
8:35 pm25 °FOvercast.6 mph86%30.28 "Hg10 mi
8:15 pm25 °FOvercast.9 mph86%30.28 "Hg10 mi
7:55 pm25 °FOvercast.9 mph86%30.28 "Hg10 mi
7:35 pm27 °FOvercast.8 mph80%30.28 "Hg10 mi
7:15 pm27 °FOvercast.5 mph86%30.27 "Hg10 mi
6:35 pm27 °FOvercast.6 mph86%30.27 "Hg10 mi
5:55 pm27 °FOvercast.8 mph86%30.25 "Hg10 mi
5:35 pm27 °FOvercast.8 mph86%30.25 "Hg10 mi
5:15 pm27 °FOvercast.12 mph86%30.24 "Hg10 mi
4:35 pm28 °FOvercast.12 mph80%30.22 "Hg10 mi
3:55 pm28 °FOvercast.9 mph80%30.20 "Hg10 mi
3:35 pm28 °FOvercast.10 mph80%30.19 "Hg10 mi
3:15 pm27 °FOvercast.10 mph86%30.17 "Hg10 mi
2:55 pm28 °FOvercast.12 mph86%30.16 "Hg10 mi
2:35 pm30 °FOvercast.17 mph86%30.14 "Hg10 mi
2:15 pm30 °FOvercast.10 mph80%30.13 "Hg10 mi
1:55 pm28 °FOvercast.9 mph86%30.13 "Hg10 mi
1:35 pm28 °FOvercast.13 mph93%30.12 "Hg9 mi
1:15 pm28 °FOvercast.12 mph93%30.12 "Hg10 mi
12:35 pm28 °FOvercast.14 mph93%30.11 "Hg10 mi
12:15 pm28 °FOvercast.15 mph93%30.10 "Hg10 mi
11:55 am28 °FLow clouds.16 mph93%30.09 "Hg10 mi
11:35 am28 °FPartly sunny.14 mph93%30.08 "Hg10 mi
11:15 am30 °FPassing clouds.17 mph93%30.07 "Hg10 mi
10:55 am28 °FPassing clouds.15 mph100%30.05 "Hg10 mi
10:35 am28 °FPartly sunny.16 mph93%30.05 "Hg10 mi
10:15 am28 °FOvercast.15 mph100%30.04 "Hg10 mi
9:55 am28 °FOvercast.15 mph100%30.02 "Hg9 mi
9:35 am28 °FOvercast.13 mph100%30.00 "Hg10 mi
9:15 am28 °FOvercast.14 mph100%29.99 "Hg10 mi
8:35 am27 °FOvercast.10 mph100%29.96 "Hg9 mi
7:55 am28 °FMostly cloudy.12 mph100%29.92 "Hg9 mi
7:35 am28 °FIce fog.13 mph100%29.92 "Hg6 mi
7:15 am28 °FIce fog.12 mph100%29.89 "Hg5 mi
6:55 am30 °FLow clouds.16 mph100%29.89 "Hg7 mi
6:35 am32 °FMostly cloudy.18 mph100%29.87 "Hg10 mi
6:15 am32 °FPartly cloudy.12 mph100%29.85 "Hg10 mi
5:55 am32 °FClear.13 mph100%29.83 "Hg10 mi
5:35 am30 °FClear.7 mph100%29.80 "Hg10 mi
5:15 am28 °FClear.7 mph100%29.80 "Hg10 mi
4:55 am28 °FClear.8 mph100%29.79 "Hg10 mi
4:35 am30 °FClear.9 mph93%29.78 "Hg10 mi
4:15 am30 °FClear.8 mph93%29.77 "Hg10 mi
3:55 am30 °FClear.8 mph100%29.76 "Hg10 mi
3:35 am32 °FClear.5 mph93%29.75 "Hg10 mi
3:15 am32 °FClear.6 mph93%29.76 "Hg10 mi
2:35 am30 °FClear.6 mph100%29.74 "Hg10 mi
2:15 am30 °FClear.6 mph100%29.73 "Hg10 mi
1:55 am32 °FClear.8 mph93%29.73 "Hg10 mi
1:35 am32 °FClear.3 mph93%29.72 "Hg10 mi
1:15 am30 °FClear.No wind100%29.72 "Hg10 mi
12:55 am30 °FClear.No wind93%29.71 "Hg10 mi
12:35 am28 °FClear.5 mph100%29.71 "Hg10 mi
12:15 am28 °FClear.6 mph100%29.71 "Hg10 mi
Weather by CustomWeather, © 2019

See weather overview

Advertising